Greenwood, SC

7:11 PM EDT on March 25, 2017 (GMT -0400)
Greenwood County

Weather History for KGRD - January, 2013

Change the Weather History Date:

Wednesday, January 30, 2013

  Actual Average (KAND) Record (KAND)
Temperature  
Mean Temperature 62 °F -  
Max Temperature 73 °F 55 °F 79 °F (1975)
Min Temperature 48 °F 34 °F 0 °F (1966)
Degree Days  
Heating Degree Days 3    
Growing Degree Days 12 (Base 50)    
Moisture  
Dew Point 59 °F    
Average Humidity 84    
Maximum Humidity 94    
Minimum Humidity 64    
Precipitation  
Precipitation 0.84 in - - ()
Sea Level Pressure  
Sea Level Pressure 29.75 in    
Wind  
Wind Speed 15 mph (SSW)    
Max Wind Speed 26 mph    
Max Gust Speed 37 mph    
Visibility 8 miles    
Events Rain    
Averages and records for this station are not official NWS values.
T = Trace of Precipitation, MM = Missing Value Source: NWS Daily Summary

Daily Weather History Graph

Daily Weather History Graph

Search for Another Location

Airport or City:

Trip Planner

Search our weather history database for the weather conditions in past years. The results will help you decide how hot, cold, wet, or windy it might be!

Date:

Astronomy

Jan. 30, 2013 Rise Set
Actual Time 7:27 AM EST 5:57 PM EST
Civil Twilight 7:00 AM EST 6:23 PM EST
Nautical Twilight 6:30 AM EST 6:53 PM EST
Astronomical Twilight 6:01 AM EST 7:23 PM EST
Moon 9:40 PM EST (1/30) 9:06 AM EST (1/30)
Length of Visible Light 11h 22m
Length of Day
10h 29m
Waning Gibbous, 88% of the Moon is Illuminated
Jan 30
Waning Gibbous
Feb 3
Last Quarter
Feb 10
New
Feb 17
First Quarter
Feb 25
Full

Hourly Weather History & Observations

Time (EST) Temp. Dew Point Humidity Pressure Visibility Wind Dir Wind Speed Gust Speed Precip Events Conditions
12:56 AM 64.0 °F 60.1 °F 87% 30.04 in 10.0 mi South 11.5 mph - N/A   Mostly Cloudy
1:56 AM 64.0 °F 60.1 °F 87% 30.01 in 10.0 mi South 12.7 mph - N/A   Overcast
2:56 AM 64.0 °F 60.1 °F 87% 29.98 in 10.0 mi South 11.5 mph 18.4 mph N/A   Overcast
3:27 AM 64.4 °F 60.8 °F 88% 29.98 in 10.0 mi SSE 17.3 mph 20.7 mph N/A   Overcast
3:56 AM 64.0 °F 61.0 °F 90% 29.95 in 10.0 mi South 16.1 mph - N/A   Overcast
4:56 AM 64.0 °F 61.0 °F 90% 29.93 in 10.0 mi South 10.4 mph - N/A   Mostly Cloudy
5:56 AM 64.0 °F 61.0 °F 90% 29.91 in 10.0 mi South 12.7 mph - N/A   Scattered Clouds
6:14 AM 64.4 °F 60.8 °F 88% 29.92 in 10.0 mi South 12.7 mph - N/A   Mostly Cloudy
6:21 AM 64.4 °F 60.8 °F 88% 29.92 in 10.0 mi South 11.5 mph - N/A   Overcast
6:31 AM 64.4 °F 60.8 °F 88% 29.93 in 10.0 mi South 10.4 mph 18.4 mph N/A   Overcast
6:56 AM 64.0 °F 61.0 °F 90% 29.91 in 10.0 mi South 9.2 mph - N/A   Overcast
7:56 AM 64.9 °F 62.1 °F 90% 29.90 in 10.0 mi South 15.0 mph 19.6 mph N/A   Overcast
8:25 AM 66.2 °F 62.6 °F 88% 29.88 in 10.0 mi South 16.1 mph 24.2 mph N/A   Overcast
8:56 AM 66.0 °F 62.1 °F 87% 29.88 in 10.0 mi South 16.1 mph 23.0 mph N/A   Overcast
9:56 AM 69.1 °F 62.1 °F 78% 29.87 in 10.0 mi SSW 17.3 mph 28.8 mph N/A   Overcast
10:56 AM 70.0 °F 61.0 °F 73% 29.83 in 10.0 mi South 18.4 mph 33.4 mph N/A   Overcast
11:03 AM 69.8 °F 60.8 °F 73% 29.84 in 10.0 mi South 20.7 mph 32.2 mph N/A   Overcast
11:56 AM 71.1 °F 61.0 °F 70% 29.80 in 10.0 mi SSW 25.3 mph 31.1 mph N/A   Overcast
12:43 PM 73.4 °F 60.8 °F 65% 29.77 in 10.0 mi SSW 23.0 mph 33.4 mph N/A   Overcast
12:56 PM 72.0 °F 60.1 °F 66% 29.74 in 10.0 mi South 23.0 mph 35.7 mph N/A   Overcast
1:56 PM 72.0 °F 60.1 °F 66% 29.69 in 10.0 mi South 18.4 mph 27.6 mph N/A   Overcast
2:56 PM 73.0 °F 60.1 °F 64% 29.65 in 10.0 mi South 16.1 mph 27.6 mph N/A   Overcast
3:56 PM 73.9 °F 61.0 °F 64% 29.61 in 10.0 mi South 19.6 mph 32.2 mph 0.00 in   Mostly Cloudy
4:56 PM 72.0 °F 61.0 °F 68% 29.55 in 10.0 mi South 21.9 mph 34.5 mph N/A   Overcast
5:56 PM 70.0 °F 62.1 °F 76% 29.51 in 10.0 mi South 21.9 mph 34.5 mph 0.01 in Rain Light Rain
6:56 PM 66.0 °F 62.1 °F 87% 29.56 in 2.5 mi WSW 18.4 mph 31.1 mph 0.14 in Rain Heavy Rain
6:58 PM 64.4 °F 60.8 °F 88% 29.58 in 1.5 mi WSW 26.5 mph 34.5 mph 0.12 in Rain Heavy Rain
7:10 PM 62.6 °F 60.8 °F 94% 29.57 in 1.2 mi WSW 17.3 mph 31.1 mph 0.42 in Rain Heavy Rain
7:14 PM 62.6 °F 60.8 °F 94% 29.56 in 2.0 mi West 13.8 mph 26.5 mph 0.44 in Rain Heavy Rain
7:23 PM 62.6 °F 60.8 °F 94% 29.57 in 5.0 mi WSW 10.4 mph 19.6 mph 0.47 in Rain Rain
7:30 PM 62.6 °F 60.8 °F 94% 29.59 in 4.0 mi West 12.7 mph 17.3 mph 0.49 in Rain Rain
7:41 PM 62.6 °F 60.8 °F 94% 29.59 in 4.0 mi West 10.4 mph 18.4 mph 0.54 in Rain Heavy Rain
7:47 PM 62.6 °F 60.8 °F 94% 29.60 in 5.0 mi West 13.8 mph 23.0 mph 0.55 in Rain Rain
7:56 PM 60.1 °F 57.0 °F 90% 29.60 in 5.0 mi West 18.4 mph 36.8 mph 0.58 in Rain Heavy Rain
8:08 PM 55.4 °F 51.8 °F 88% 29.63 in 10.0 mi West 20.7 mph 33.4 mph 0.01 in Rain Light Rain
8:27 PM 53.6 °F 48.2 °F 82% 29.66 in 6.0 mi West 19.6 mph 33.4 mph 0.03 in Rain Rain
8:56 PM 52.0 °F 48.9 °F 89% 29.66 in 10.0 mi WSW 10.4 mph - 0.07 in Rain Light Rain
9:56 PM 52.0 °F 48.9 °F 89% 29.65 in 10.0 mi SW 11.5 mph - 0.00 in   Overcast
10:56 PM 51.1 °F 46.9 °F 86% 29.67 in 10.0 mi WSW 12.7 mph 19.6 mph 0.02 in Rain Light Rain
11:56 PM 48.9 °F 46.0 °F 90% 29.68 in 10.0 mi SW 15.0 mph 24.2 mph 0.02 in Rain Light Rain